Content
SEND FEEDBACK

Daily
Averages
Monthly
Summary
United States of America

NEW YORK - CENTRAL PARK, NEW YORK


Home > North America > United States > New York
Elevation: 14 feet     Latitude: 40 47N     Longitude: 073 58W

WEATHER
 
SELECT A DAY
Number of Records: 150,506;   Date Range: 11/1/95 - 9/29/14
 
SHARE

PRINT THIS DATA

[ ← Previous Day ]
WEATHER ALMANAC - MARCH 4, 2014
[ Next Day → ]
[ °C ]   °F
Weather ElementAverageHighLow
Temperature22.2 °F28.9 °F (8:51 pm)12.9 °F (4:51 am)
Dewpoint1.4 °F9 °F (9:51 pm)-4 °F (1:51 am)
Humidity41.4 %56 % (6:51 am)29 % (2:51 pm)
Barometer30.33 in30.43 in (8:51 am)30.26 in (10:51 pm)
Wind Speed4.7 mph9.2 mph (5:51 am)
Weather ElementAverage
Visibility10 mi
Wind DirectionESE (116.1 °)

Weather ElementTotal
Precipitation---
Heating Degree Days44.1 (Base 65)
Averaged from 23 records on March 4, 2014
WEATHER CONDITIONS BREAKOUT
WIND DIRECTION BREAKOUT
WEATHER BY HOUR - MARCH 4, 2014
[ °C ]   °F
Local TimeTemperatureDewpointHumidityBarometerVisibilityWind DirectionWind SpeedGust SpeedPrecipitationEventsConditions
1:51 AM16.0 °F-4.0 °F41 %30.34 in10.0 miNorth (350°)8.1 mphClear
2:51 AM14.0 °F-2.9 °F47 %30.35 in10.0 miVariable5.8 mphClear
3:51 AM14.0 °F-4.0 °F45 %30.34 in10.0 miNNW (340°)8.1 mphClear
4:51 AM12.9 °F-4.0 °F47 %30.36 in10.0 miVariable6.9 mphClear
5:51 AM12.9 °F-2.0 °F51 %30.37 in10.0 miNorth (10°)9.2 mphClear
6:51 AM12.9 °F0.0 °F56 %30.38 in10.0 miNNE (30°)4.6 mphClear
7:51 AM14.0 °F1.0 °F56 %30.41 in10.0 miVariable5.8 mphClear
8:51 AM17.1 °F1.9 °F52 %30.43 in10.0 miVariable4.6 mphClear
9:51 AM18.0 °F1.0 °F48 %30.43 in10.0 miVariable6.9 mphClear
10:51 AM21.0 °F1.9 °F44 %30.40 in10.0 miCalmClear
11:51 AM23.0 °F3.0 °F42 %30.37 in10.0 miNNE (30°)3.5 mphClear
12:51 PM24.1 °F3.9 °F42 %30.34 in10.0 miCalmClear
1:51 PM28.0 °F6.1 °F39 %30.31 in10.0 miNorthClear
2:51 PM27.0 °F-2.0 °F29 %30.30 in10.0 miWNW (300°)5.8 mphClear
3:51 PM28.0 °F0.0 °F30 %30.29 in10.0 miCalmScattered Clouds
4:51 PM28.0 °F1.0 °F31 %30.27 in10.0 miWNW (290°)3.5 mphClear
5:51 PM28.0 °F1.9 °F33 %30.27 in10.0 miWest (270°)3.5 mphClear
6:51 PM28.0 °F3.0 °F34 %30.28 in10.0 miWest (260°)9.2 mphClear
7:51 PM28.0 °F3.0 °F34 %30.28 in10.0 miWSW (250°)9.2 mphPartly Cloudy
8:51 PM28.9 °F8.1 °F41 %30.28 in10.0 miCalmMostly Cloudy
9:51 PM28.9 °F9.0 °F43 %30.27 in10.0 miCalmMostly Cloudy
10:51 PM28.0 °F3.9 °F36 %30.26 in10.0 miWSW (250°)5.8 mphPartly Cloudy
11:51 PM28.9 °F1.9 °F32 %30.26 in10.0 miWNW (290°)3.5 mphOvercast
Hourly data recorded from KNYC, located miles away from New York - Central Park, New York







STORIES FROM OUR PARTNERS